This is the latest recevied weather packets stored in our database for station/object WC4PEM-15. If no packets are shown the sender has not sent any weather packets the latest 1 day(s).
| Time | Temp. | Humidity | Pressure | Rain* | Wind** | Luminosity | Snow |
|---|---|---|---|---|---|---|---|
| 1778006701 | 28.89° C | 53% | 1015.2 hPa | 0 mm | 3.13 m/s, 66° | - | - |
| 1778006435 | 28.89° C | 52% | 1015 hPa | 0 mm | 3.13 m/s, 101° | - | - |
| 1778006401 | 28.89° C | 52% | 1015 hPa | 0 mm | 3.13 m/s, 101° | - | - |
| 1778006101 | 28.89° C | 52% | 1015.1 hPa | 0 mm | 2.68 m/s, 67° | - | - |
| 1778005893 | 28.33° C | 53% | 1015.3 hPa | 0 mm | 3.13 m/s, 332° | - | - |
| 1778005835 | 28.33° C | 53% | 1015.3 hPa | 0 mm | 3.13 m/s, 332° | - | - |
| 1778005801 | 28.33° C | 53% | 1015.3 hPa | 0 mm | 3.13 m/s, 332° | - | - |
| 1778005561 | 28.33° C | 53% | 1015.4 hPa | 0 mm | 3.58 m/s, 83° | - | - |
| 1778005501 | 28.33° C | 53% | 1015.4 hPa | 0 mm | 3.58 m/s, 83° | - | - |
| 1778005264 | 28.89° C | 52% | 1015.4 hPa | 0 mm | 3.13 m/s, 90° | - | - |
| 1778005201 | 28.89° C | 52% | 1015.4 hPa | 0 mm | 3.13 m/s, 90° | - | - |
| 1778004959 | 28.89° C | 53% | 1015.5 hPa | 0 mm | 2.68 m/s, 70° | - | - |
| 1778004901 | 28.89° C | 53% | 1015.5 hPa | 0 mm | 2.68 m/s, 70° | - | - |
| 1778004692 | 28.33° C | 54% | 1015.4 hPa | 0 mm | 2.68 m/s, 82° | - | - |
| 1778004660 | 28.33° C | 54% | 1015.4 hPa | 0 mm | 2.68 m/s, 82° | - | - |
| 1778004601 | 28.33° C | 54% | 1015.4 hPa | 0 mm | 2.68 m/s, 82° | - | - |
| 1778004301 | 28.89° C | 53% | 1015.6 hPa | 0 mm | 2.68 m/s, 67° | - | - |
| 1778004057 | 28.33° C | 52% | 1015.6 hPa | 0 mm | 2.68 m/s, 71° | - | - |
| 1778004001 | 28.33° C | 52% | 1015.6 hPa | 0 mm | 2.68 m/s, 71° | - | - |
| 1778003701 | 28.89° C | 52% | 1015.4 hPa | 0 mm | 2.24 m/s, 113° | - | - |
| 1778003474 | 28.89° C | 52% | 1015.6 hPa | 0 mm | 1.79 m/s, 61° | - | - |
| 1778003401 | 28.89° C | 52% | 1015.6 hPa | 0 mm | 1.79 m/s, 61° | - | - |
| 1778003151 | 28.89° C | 52% | 1015.7 hPa | 0 mm | 2.24 m/s, 71° | - | - |
| 1778003101 | 28.89° C | 52% | 1015.7 hPa | 0 mm | 2.24 m/s, 71° | - | - |
| 1778002967 | 28.89° C | 50% | 1015.9 hPa | 0 mm | 2.68 m/s, 71° | - | - |
* Rain latest hour (hover to see other rain measurements)
** Current wind speed in m/s (hover to see current wind gust speed)